sat.trackr.live / text

‹ back to catalog

STARLINK-1046

NORAD 44751 · 2019-074AQ

PAYLOAD ACTIVE UNKNOWN

§ Identity

Operator
Country
US
Launch date
2019-11-11
Launch site
AFETR
Launch vehicle
Mass (kg)
RCS (m²)

Purposes: comms

External: N2YO · Heavens-Above · Gunter

§ Orbital elements

Epoch: 2026-05-25T03:51:14.065344Z

Period
92.71 min
Inclination
53.0476°
Eccentricity
0.0007241
Mean motion
15.53306113 rev/d
Perigee alt
402.2 km
Apogee alt
412.0 km
Semi-major
6,785.2 km
B*
9.6559e-4
RAAN
204.7829°
Arg perigee
18.0004°
Mean anomaly
342.1260°
Rev number
36,026

§ Raw data

STARLINK-10461 44751U 19074AQ  26145.16057946  .00062026  00000+0  96559-3 0  99902 44751  53.0476 204.7829 0007241  18.0004 342.1260 15.53306113360260

JSON: /api/v1/satellites/44751 · /tle

For live sub-satellite position, see the globe view (requires WebGL).

§ Visibility from observer

Set your observer location to see the next 7 days of passes ≥ 10°. The values pass through the URL so the page stays shareable.

No JS? Fill the form by hand. The geolocation button needs JavaScript.